Date String (YYYY-MM-DD hh:mm:ss) UTC,Instrument flags,absolute air pressure of the measurement (hPa),sample flow rate (lpm),inlet stack bypass flow (lpm),air temperature of the measurement (°C),ambient temperature measured by the external sensor (°C),aerosol sample conditioner tube jacket temperature (°C),OPC LED temperature (°C),internal box temperature (°C),relative humidity of the measurement (%),span deviation,mass concentration of particles derived from Lorenz-Mie calculation of OPC scattering (μg/m³),mass concentration of particles derived from Lorenz-Mie calculation of OPC scattering (μg/m³),mass concentration of particles derived from Lorenz-Mie calculation of OPC scattering (μg/m³)
DateTimeUTC,F1_M11,P_M11,Q1_M11,Q2_M11,T1_M11,T2_M11,T3_M11,T4_M11,T5_M11,U1_M11,ZSPAN_M11,X2_M11,X0_M11,X1_M11
2023-11-03 21:00:00,SystemResetWarning,0830.6,4.98,000.00,028.5,026.6,000.0,036.6,030.0,11.6,0000.0,0000.90,0001.46,0000.69
2023-11-03 21:01:00,SystemResetWarning,0830.6,5.02,000.00,028.4,025.1,000.0,036.6,029.8,11.7,0000.0,0000.91,0001.50,0000.70
2023-11-03 21:02:00,SystemResetWarning,0830.5,5.00,000.00,028.3,025.0,000.0,036.5,029.6,11.7,0000.0,0000.91,0001.49,0000.71
2023-11-03 21:03:00,SystemResetWarning,0830.4,4.99,000.00,028.2,025.3,000.0,036.5,029.3,12.0,0000.0,0000.88,0001.44,0000.70
2023-11-03 21:04:00,SystemResetWarning,0830.5,5.01,000.00,028.2,025.7,000.0,036.5,029.4,12.1,0000.0,0000.89,0001.43,0000.70
2023-11-03 21:05:00,SystemResetWarning,0830.6,5.01,000.00,028.2,026.1,000.0,036.5,029.5,11.7,0000.0,0000.89,0001.45,0000.70
2023-11-03 21:06:00,SystemResetWarning,0830.5,5.00,000.00,028.2,026.3,000.0,036.5,029.5,11.9,0000.0,0000.88,0001.50,0000.70
2023-11-03 21:07:00,SystemResetWarning,0830.5,5.00,000.00,028.2,026.6,000.0,036.5,029.6,11.9,0000.0,0000.89,0002.46,0000.71
2023-11-03 21:08:00,SystemResetWarning,0830.4,4.99,000.00,028.2,026.8,000.0,036.5,029.7,12.0,0000.0,0000.88,0003.15,0000.70
2023-11-03 21:09:00,SystemResetWarning,0830.5,4.99,000.00,028.2,027.0,000.0,036.5,029.7,11.7,0000.0,0000.89,0003.56,0000.71
2023-11-03 21:10:00,SystemResetWarning,0830.6,5.00,000.00,028.3,027.1,000.0,036.5,029.8,11.5,0000.0,0000.85,0003.42,0000.71
2023-11-03 21:11:00,SystemResetWarning,0830.6,5.00,000.00,028.3,027.2,000.0,036.5,029.8,11.7,0000.0,0000.83,0003.32,0000.71
2023-11-03 21:12:00,SystemResetWarning,0830.7,4.99,000.00,028.3,027.4,000.0,036.5,029.9,12.0,0000.0,0000.86,0003.33,0000.70
2023-11-03 21:13:00,SystemResetWarning,0830.7,5.00,000.00,028.4,027.5,000.0,036.5,030.0,11.9,0000.0,0000.85,0003.31,0000.69
2023-11-03 21:14:00,SystemResetWarning,0830.7,5.00,000.00,028.4,027.5,000.0,036.6,030.0,11.8,0000.0,0000.85,0003.35,0000.68
2023-11-03 21:15:00,SystemResetWarning,0830.7,4.99,000.00,028.4,026.4,000.0,036.6,030.0,11.5,0000.0,0000.86,0003.40,0000.68
2023-11-03 21:16:00,SystemResetWarning,0830.7,5.01,000.00,028.4,025.1,000.0,036.5,029.8,11.6,0000.0,0000.86,0003.37,0000.68
2023-11-03 21:17:00,SystemResetWarning,0830.7,5.01,000.00,028.3,025.0,000.0,036.5,029.6,11.5,0000.0,0000.89,0003.41,0000.67
2023-11-03 21:18:00,SystemResetWarning,0830.7,4.99,000.00,028.2,025.4,000.0,036.5,029.3,11.6,0000.0,0000.91,0002.45,0000.66
2023-11-03 21:19:00,SystemResetWarning,0830.7,4.99,000.00,028.1,025.7,000.0,036.4,029.4,11.4,0000.0,0000.91,0002.04,0000.66
2023-11-03 21:20:00,SystemResetWarning,0830.8,5.02,000.00,028.1,026.1,000.0,036.4,029.4,11.4,0000.0,0000.89,0001.33,0000.65
2023-11-03 21:21:00,SystemResetWarning,0830.9,5.00,000.00,028.1,026.4,000.0,036.4,029.5,11.5,0000.0,0000.93,0001.43,0000.65
2023-11-03 21:22:00,SystemResetWarning,0830.9,4.99,000.00,028.1,026.6,000.0,036.4,029.6,11.7,0000.0,0000.94,0001.75,0000.65
2023-11-03 21:23:00,SystemResetWarning,0830.9,5.01,000.00,028.2,026.8,000.0,036.4,029.7,11.4,0000.0,0000.90,0001.99,0000.65
2023-11-03 21:24:00,SystemResetWarning,0830.9,5.01,000.00,028.2,027.0,000.0,036.4,029.7,11.4,0000.0,0000.92,0002.14,0000.66
2023-11-03 21:25:00,SystemResetWarning,0831.0,5.00,000.00,028.3,027.2,000.0,036.5,029.8,11.5,0000.0,0000.96,0002.29,0000.67
2023-11-03 21:26:00,SystemResetWarning,0830.9,4.99,000.00,028.3,027.3,000.0,036.5,029.9,11.4,0000.0,0000.96,0002.30,0000.68
2023-11-03 21:27:00,SystemResetWarning,0831.0,4.99,000.00,028.4,027.4,000.0,036.5,029.9,11.3,0000.0,0000.99,0002.40,0000.68
2023-11-03 21:28:00,SystemResetWarning,0831.0,5.00,000.00,028.4,027.5,000.0,036.5,030.0,11.2,0000.0,0001.01,0002.48,0000.69
2023-11-03 21:29:00,SystemResetWarning,0831.0,4.99,000.00,028.4,027.2,000.0,036.5,030.0,11.3,0000.0,0001.04,0002.60,0000.69
2023-11-03 21:30:00,SystemResetWarning,0830.9,5.00,000.00,028.4,025.2,000.0,036.5,029.7,11.2,0000.0,0001.00,0002.52,0000.69
2023-11-03 21:31:00,SystemResetWarning,0830.9,5.02,000.00,028.2,024.0,000.0,036.5,029.4,11.4,0000.0,0000.99,0002.42,0000.70
2023-11-03 21:32:00,SystemResetWarning,0831.1,5.00,000.00,028.1,024.1,000.0,036.4,029.2,11.5,0000.0,0000.98,0002.40,0000.69
2023-11-03 21:33:00,SystemResetWarning,0831.0,5.00,000.00,028.0,024.6,000.0,036.4,028.9,11.7,0000.0,0000.95,0002.97,0000.68
2023-11-03 21:34:00,SystemResetWarning,0830.9,5.00,000.00,027.9,025.1,000.0,036.3,029.0,11.8,0000.0,0000.98,0002.57,0000.69
2023-11-03 21:35:00,SystemResetWarning,0830.9,5.00,000.00,027.9,025.5,000.0,036.3,029.1,11.9,0000.0,0000.99,0002.44,0000.70
2023-11-03 21:36:00,SystemResetWarning,0831.0,5.00,000.00,027.9,025.8,000.0,036.3,029.2,11.8,0000.0,0000.97,0002.28,0000.69
2023-11-03 21:37:00,SystemResetWarning,0831.0,5.01,000.00,027.9,026.1,000.0,036.2,029.3,11.8,0000.0,0000.98,0002.27,0000.70
2023-11-03 21:38:00,SystemResetWarning,0831.0,5.00,000.00,027.9,026.4,000.0,036.2,029.4,11.8,0000.0,0001.03,0002.37,0000.71
2023-11-03 21:39:00,SystemResetWarning,0831.0,5.00,000.00,028.0,026.6,000.0,036.2,029.5,11.8,0000.0,0000.98,0002.22,0000.71
2023-11-03 21:40:00,SystemResetWarning,0831.0,5.00,000.00,028.0,026.8,000.0,036.3,029.6,11.7,0000.0,0000.93,0002.07,0000.71
2023-11-03 21:41:00,SystemResetWarning,0831.0,5.00,000.00,028.1,027.0,000.0,036.3,029.6,11.8,0000.0,0000.92,0002.74,0000.72
2023-11-03 21:42:00,SystemResetWarning,0831.1,5.00,000.00,028.1,027.1,000.0,036.3,029.7,11.6,0000.0,0000.96,0004.22,0000.74
2023-11-03 21:43:00,SystemResetWarning,0831.1,5.00,000.00,028.2,027.2,000.0,036.3,029.7,11.7,0000.0,0000.99,0004.81,0000.74
2023-11-03 21:44:00,SystemResetWarning,0831.1,4.99,000.00,028.2,027.3,000.0,036.3,029.8,11.7,0000.0,0000.99,0004.80,0000.75
2023-11-03 21:45:00,SystemResetWarning,0831.1,4.99,000.00,028.3,027.4,000.0,036.4,029.8,11.6,0000.0,0000.99,0004.13,0000.76
2023-11-03 21:46:00,SystemResetWarning,0831.1,5.00,000.00,028.3,027.5,000.0,036.4,029.9,11.6,0000.0,0000.96,0004.07,0000.75
2023-11-03 21:47:00,SystemResetWarning,0831.1,5.00,000.00,028.3,027.5,000.0,036.4,029.9,11.5,0000.0,0000.96,0004.10,0000.75
2023-11-03 21:48:00,SystemResetWarning,0831.1,5.00,000.00,028.4,026.5,000.0,036.4,029.9,11.5,0000.0,0000.98,0004.18,0000.75
2023-11-03 21:49:00,SystemResetWarning,0831.1,5.00,000.00,028.3,024.9,000.0,036.4,029.7,11.6,0000.0,0000.96,0004.05,0000.75
2023-11-03 21:50:00,SystemResetWarning,0831.1,5.01,000.00,028.2,024.9,000.0,036.4,029.5,11.8,0000.0,0000.94,0004.03,0000.75
2023-11-03 21:51:00,SystemResetWarning,0831.1,5.01,000.00,028.1,025.2,000.0,036.4,029.2,11.9,0000.0,0000.94,0004.05,0000.75
2023-11-03 21:52:00,SystemResetWarning,0831.1,5.00,000.00,028.0,025.6,000.0,036.3,029.2,11.9,0000.0,0000.95,0003.98,0000.74
2023-11-03 21:53:00,SystemResetWarning,0831.2,5.00,000.00,028.0,025.9,000.0,036.3,029.3,11.7,0000.0,0000.91,0002.36,0000.73
2023-11-03 21:54:00,SystemResetWarning,0831.1,5.00,000.00,028.0,026.2,000.0,036.3,029.4,11.6,0000.0,0000.88,0001.46,0000.71
2023-11-03 21:55:00,SystemResetWarning,0831.0,5.00,000.00,028.1,026.5,000.0,036.3,029.5,11.7,0000.0,0000.86,0001.38,0000.71
2023-11-03 21:56:00,SystemResetWarning,0831.0,5.00,000.00,028.1,026.7,000.0,036.3,029.6,11.6,0000.0,0000.87,0001.41,0000.71
2023-11-03 21:57:00,SystemResetWarning,0831.0,5.00,000.00,028.1,026.9,000.0,036.3,029.6,11.6,0000.0,0000.88,0001.44,0000.72
2023-11-03 21:58:00,SystemResetWarning,0831.0,5.00,000.00,028.2,027.0,000.0,036.3,029.7,11.5,0000.0,0000.89,0001.43,0000.72
2023-11-03 21:59:00,SystemResetWarning,0831.0,5.00,000.00,028.2,027.1,000.0,036.4,029.7,11.4,0000.0,0000.90,0001.37,0000.72
